User: anonymous   Login
Location: Newark
(45.5167°N, 11.1667°E)
Time: 16:19:37
(UTC+00:00)
Language:

Transit 2A Rocket - Orbit

View from above orbital plane
View from above orbital plane
View from above satellite
View from above satellite

Ground track
Ground track

The orbit data is extracted from the following two-line orbital elements,

1    47U 60007C   19349.38690873 -.00000021  00000-0  20274-4 0  9997
2    47  66.6664 289.8421 0220437  78.2846 284.2900 14.42062957108446
Epoch (UTC): 15 December 2019 09:17:08
Eccentricity: 0.0220437
inclination: 66.6664°
perigee height: 594 km
apogee height: 909 km
right ascension of ascending node: 289.8421°
argument of perigee: 78.2846°
revolutions per day: 14.42062957
mean anomaly at epoch: 284.2900°
orbit number at epoch: 10844

The dashed part of the orbit path shows where the satellite is in the earth's shadow,  

DLR